Wind_Speed
10 11 11 11 11 11 10 9 7 6 5 4 5 5 4 4 4 4 4 3 3 3 4 5 5 7 7 7 6 6 5 5 4 4 4 5 5 4 4 4 4 4 4
11 10 10 11 11 11 11 10 9 8 7 6 6 6 5 5 4 4 4 4 3 4 4 5 6 7 7 7 6 5 5 5 5 5 5 5 4 4 4 4 4 5 4
11 11 11 11 11 11 11 11 10 10 9 8 8 7 6 6 5 5 5 4 4 4 4 5 6 6 6 6 6 6 6 6 6 5 4 4 4 3 3 3 4 3 3
10 11 11 11 11 12 12 11 10 10 9 9 9 8 7 6 6 5 5 5 4 4 5 5 6 6 6 6 6 6 7 6 6 5 4 4 3 3 3 2 2 2 2
9 10 10 10 11 11 12 11 11 11 10 9 9 8 7 7 6 5 5 5 4 4 5 5 6 6 6 6 6 7 7 6 5 4 4 3 2 2 2 3 2 1 2
9 9 9 10 10 11 11 11 11 11 11 10 9 8 8 7 6 5 4 3 4 4 4 5 5 6 6 5 6 6 7 6 5 4 4 3 2 2 3 2 2 2 2
9 9 9 10 10 10 10 11 11 10 10 10 9 8 7 7 7 5 3 4 4 4 4 4 5 5 6 6 6 7 6 6 4 3 3 2 2 3 2 2 1 1 2
9 9 9 9 10 10 10 10 10 10 10 10 10 9 8 8 8 7 5 6 6 5 5 5 5 6 6 6 6 5 5 5 3 2 1 2 2 1 2 2 2 2 2
9 9 9 9 10 10 10 10 9 9 9 9 10 9 9 9 9 8 8 7 6 6 5 4 4 4 4 4 5 5 5 4 3 1 1 1 2 2 2 2 3 3 3
10 10 10 10 10 10 10 10 10 10 9 9 9 9 9 10 9 9 9 8 8 7 6 5 5 5 5 4 4 4 4 4 2 2 2 2 2 2 2 3 3 3 3
12 12 11 11 11 11 11 10 10 10 9 9 9 9 9 9 9 9 10 9 8 7 7 6 5 6 6 5 5 4 3 2 2 1 2 2 2 2 2 2 2 2 3
12 12 12 12 12 12 12 10 10 10 9 9 9 9 8 8 8 8 9 8 7 7 6 5 5 5 5 5 5 4 3 2 1 1 1 1 2 2 2 2 2 3 4
12 13 13 13 12 12 12 11 10 9 9 9 9 9 8 8 8 7 7 7 6 6 5 4 5 5 5 5 4 4 3 2 1 1 2 2 2 2 3 3 4 4 4
12 12 12 11 11 11 10 10 10 9 8 9 9 8 8 7 7 7 7 7 7 6 5 4 4 4 4 4 4 3 2 2 1 1 1 2 3 3 4 4 4 5 5
11 11 11 10 10 10 9 8 8 9 9 8 9 8 9 8 7 7 7 7 6 6 5 4 3 3 4 3 3 2 2 1 1 0 0 1 2 3 3 4 5 5 5
10 10 10 10 10 10 10 10 9 9 9 8 9 9 9 9 9 7 7 6 6 5 4 4 3 3 3 2 2 2 1 1 1 1 2 2 2 3 3 4 4 5 6
10 9 9 9 9 9 9 9 9 9 10 10 9 9 9 9 9 8 7 7 6 6 4 4 3 4 3 2 2 1 1 1 1 2 3 3 3 4 4 4 5 5 6
9 8 8 8 8 8 8 7 7 8 8 9 9 9 8 8 8 7 6 7 7 7 6 5 4 4 4 3 3 2 1 2 2 2 3 3 4 4 5 5 5 6 7
8 7 7 7 7 7 7 6 6 6 6 7 7 7 7 6 6 6 5 5 6 6 5 6 4 4 4 4 3 3 2 2 2 3 4 4 5 5 5 6 6 7 8
7 6 6 6 6 6 6 5 5 5 5 5 5 6 5 5 5 4 4 4 4 4 4 4 4 4 4 3 4 4 3 3 3 4 5 5 6 6 6 7 7 8 9
5 5 4 4 4 4 4 4 4 4 4 4 4 4 4 3 3 4 3 3 3 2 2 2 2 2 2 3 3 4 4 4 5 5 5 6 7 7 7 7 7 8 10
4 3 3 3 3 3 3 3 3 4 4 4 3 3 3 3 3 3 3 2 2 2 2 2 2 2 2 2 4 4 4 4 5 5 6 7 7 7 8 8 8 9 10
4 3 3 3 3 3 3 3 3 4 4 4 4 4 4 4 3 3 3 3 2 2 2 2 3 3 3 3 4 4 5 5 6 6 7 7 8 8 9 8 9 10 11
4 3 3 4 4 4 3 4 4 4 4 4 4 4 4 4 4 4 4 4 4 4 4 4 5 5 4 4 5 6 6 6 6 7 7 8 9 10 10 11 11 12 14
5 5 4 4 4 4 4 4 4 4 5 5 5 5 5 5 5 5 6 6 6 6 6 6 6 6 6 6 7 7 7 7 8 8 8 9 10 11 12 13 14 14 15
6 5 5 4 4 5 5 5 5 6 6 6 6 7 7 6 7 7 7 7 8 8 8 8 8 8 8 9 9 9 9 10 10 10 11 11 11 12 13 14 15 16 17
Wind_Direction
52 53 51 52 57 58 56 54 51 53 68 92 92 94 90 73 71 86 104 115 126 136 154 169 171 170 177 181 179 183 186 182 182 186 198 215 227 239 253 261 265 259 269
50 52 51 52 57 56 55 55 51 57 67 86 89 87 82 76 75 90 106 112 123 129 142 156 165 164 171 173 180 183 185 191 189 197 211 226 233 251 260 260 271 271 266
49 50 50 52 53 52 50 53 54 57 64 80 87 85 80 78 74 89 98 107 109 118 128 148 154 151 159 167 175 180 183 187 191 201 206 217 236 260 266 270 275 283 269
50 49 49 53 52 50 49 49 53 55 63 75 84 85 80 74 73 87 99 105 110 124 124 137 147 150 157 164 170 181 185 188 191 196 196 210 236 257 260 261 272 275 273
49 48 49 53 52 50 49 50 54 58 63 71 78 79 77 74 76 83 97 110 122 131 138 143 149 158 166 169 173 184 190 191 195 197 191 204 237 258 259 269 285 293 288
49 48 48 50 51 52 52 55 58 61 66 71 71 74 75 72 75 75 86 109 126 139 147 157 157 168 176 175 182 196 191 190 201 199 198 210 235 256 272 284 291 287 294
51 53 50 51 49 54 56 57 57 63 67 69 69 68 67 69 69 65 98 132 130 133 150 157 169 180 189 188 189 185 185 183 185 199 204 210 236 259 276 309 314 300 289
54 54 50 51 52 58 61 63 61 65 69 71 70 67 64 64 60 62 93 125 125 130 144 154 160 172 177 179 182 180 178 176 171 175 188 228 237 247 274 276 269 268 270
56 54 52 54 57 59 64 66 64 64 67 71 71 68 67 69 69 71 85 105 116 120 125 136 142 139 135 155 168 170 159 160 168 176 242 266 258 246 250 263 263 272 275
54 57 58 59 60 61 64 67 69 69 72 72 71 68 70 73 72 74 83 95 106 114 108 107 113 109 113 128 146 148 157 163 175 203 224 241 241 238 264 268 269 281 291
55 60 62 62 61 60 64 68 72 73 73 73 75 73 73 74 75 79 83 90 100 106 101 98 102 102 115 125 128 131 136 147 167 205 229 247 244 252 264 261 271 292 298
57 58 62 64 61 60 64 70 72 72 74 73 76 73 73 75 80 79 81 85 91 97 97 92 102 105 115 124 125 128 132 139 162 174 220 244 245 258 259 258 284 299 306
59 58 61 63 61 59 60 65 70 71 75 76 76 76 77 79 83 84 84 84 87 89 92 89 95 109 107 111 112 111 113 129 134 299 288 272 250 261 266 272 287 295 301
59 58 59 58 58 58 60 62 64 68 76 75 77 79 82 84 86 92 90 85 82 84 87 89 97 106 105 98 103 104 85 61 24 324 300 275 266 262 271 286 290 291 297
57 56 57 59 60 59 60 62 63 62 68 70 71 75 76 83 89 89 90 81 75 82 82 76 86 93 92 88 90 93 81 49 37 44 340 293 282 278 276 283 290 292 296
55 53 54 58 60 60 62 62 61 60 66 72 72 71 72 73 69 69 70 67 62 64 65 67 75 78 70 67 65 70 69 32 45 330 304 294 310 303 297 294 295 298 299
53 54 55 57 58 57 58 59 58 59 63 63 65 72 72 73 72 70 67 64 57 57 51 49 60 55 52 49 39 30 34 21 352 325 320 320 319 318 319 310 301 299 303
48 53 54 52 54 55 55 55 56 59 59 55 57 64 67 66 64 65 65 62 57 53 51 55 58 51 45 41 29 19 13 350 328 315 313 314 320 319 307 306 308 307 311
44 46 49 49 49 49 48 50 51 54 53 50 53 56 58 57 54 55 55 54 51 54 57 59 56 50 47 41 24 1 343 335 313 302 305 312 308 311 308 303 305 307 309
41 42 44 44 43 38 38 44 50 50 49 49 51 52 48 51 46 42 42 45 49 50 44 40 41 40 40 33 18 6 354 335 320 313 313 316 310 307 307 304 300 300 305
32 33 34 35 37 37 33 34 36 31 34 41 41 36 31 33 30 22 23 35 35 33 30 22 25 27 27 12 3 357 351 342 336 329 320 319 315 312 313 306 303 303 304
17 10 3 7 8 20 23 16 13 13 16 13 10 3 4 5 359 2 13 14 8 6 1 358 2 5 5 352 344 341 343 341 333 328 326 325 320 317 316 313 307 312 308
3 357 344 344 352 1 2 359 351 348 349 348 352 348 342 337 340 342 340 331 320 317 329 334 327 324 316 321 324 330 331 331 323 320 320 319 318 315 313 314 315 311 309
333 336 340 347 349 348 344 332 326 328 331 331 332 334 328 319 316 320 316 309 300 293 294 300 305 306 303 299 302 309 314 315 312 309 312 311 311 311 311 312 310 309 309
307 314 317 314 317 318 317 311 309 309 312 313 311 312 312 305 302 299 299 298 293 289 286 286 288 293 293 292 294 298 300 301 302 303 305 306 305 306 307 307 307 308 309
295 301 304 296 301 305 306 301 297 294 295 298 299 299 302 301 298 292 291 292 291 287 285 283 280 283 287 288 290 293 294 295 295 298 299 301 302 303 305 305 307 309 310
Height
5870 5868 5867 5865 5864 5863 5861 5860 5858 5857 5856 5857 5858 5859 5859 5860 5860 5860 5860 5861 5862 5862 5862 5864 5866 5867 5869 5872 5874 5875 5877 5878 5879 5880 5881 5881 5882 5883 5883 5883 5884 5885 5885
5870 5869 5868 5866 5865 5864 5862 5860 5858 5856 5855 5856 5857 5859 5860 5860 5860 5860 5861 5861 5862 5862 5863 5864 5866 5868 5870 5872 5874 5875 5876 5878 5879 5880 5881 5881 5882 5883 5883 5883 5884 5884 5884
5871 5870 5868 5867 5866 5865 5863 5861 5859 5857 5856 5856 5858 5859 5860 5861 5861 5861 5861 5861 5862 5863 5864 5864 5866 5868 5870 5872 5874 5875 5876 5877 5879 5880 5880 5881 5882 5883 5883 5883 5883 5884 5884
5872 5871 5869 5868 5867 5865 5864 5862 5860 5859 5857 5858 5859 5860 5861 5862 5862 5862 5862 5862 5863 5863 5864 5865 5867 5869 5870 5872 5874 5875 5876 5877 5878 5880 5881 5882 5882 5883 5883 5883 5883 5883 5883
5873 5872 5870 5869 5868 5867 5865 5863 5862 5861 5860 5860 5861 5862 5862 5862 5862 5862 5862 5863 5863 5864 5865 5866 5867 5869 5871 5872 5874 5875 5876 5877 5878 5880 5881 5882 5882 5883 5883 5883 5883 5883 5883
5874 5873 5871 5870 5869 5868 5866 5865 5864 5864 5863 5862 5863 5863 5863 5863 5862 5861 5861 5862 5863 5864 5865 5866 5867 5869 5870 5872 5873 5874 5875 5877 5878 5880 5881 5881 5882 5882 5883 5883 5883 5883 5883
5875 5873 5872 5871 5870 5869 5868 5867 5866 5866 5865 5865 5865 5865 5864 5863 5862 5860 5859 5861 5863 5864 5865 5866 5866 5868 5870 5871 5873 5874 5875 5877 5878 5880 5880 5881 5882 5882 5882 5883 5882 5883 5883
5876 5874 5873 5872 5871 5870 5869 5868 5868 5868 5867 5867 5866 5866 5865 5864 5862 5859 5856 5859 5862 5864 5866 5867 5867 5868 5869 5870 5871 5873 5875 5876 5878 5879 5880 5881 5881 5882 5882 5882 5882 5882 5882
5877 5876 5874 5873 5872 5871 5870 5870 5870 5869 5869 5868 5868 5868 5867 5866 5864 5861 5859 5860 5862 5865 5867 5868 5868 5869 5869 5869 5870 5873 5875 5877 5878 5879 5880 5881 5881 5881 5882 5881 5882 5881 5881
5878 5877 5876 5874 5873 5872 5872 5871 5871 5871 5870 5870 5870 5869 5868 5867 5866 5864 5863 5863 5865 5867 5868 5869 5869 5869 5870 5871 5872 5874 5876 5877 5878 5879 5880 5880 5881 5881 5881 5881 5881 5881 5881
5880 5879 5877 5876 5875 5874 5873 5873 5873 5872 5872 5872 5871 5871 5870 5869 5869 5868 5867 5867 5868 5869 5870 5871 5871 5871 5872 5873 5874 5876 5877 5878 5878 5879 5880 5880 5880 5881 5881 5881 5881 5880 5880
5882 5881 5879 5878 5877 5876 5875 5874 5874 5874 5874 5873 5873 5873 5872 5872 5871 5871 5871 5870 5871 5871 5872 5873 5873 5873 5874 5874 5875 5876 5877 5878 5879 5879 5880 5880 5880 5880 5880 5880 5880 5880 5879
5884 5882 5881 5880 5879 5878 5878 5877 5876 5876 5875 5875 5875 5875 5874 5874 5873 5873 5873 5873 5873 5873 5874 5874 5875 5875 5875 5876 5876 5877 5878 5878 5879 5879 5879 5880 5880 5880 5880 5880 5879 5879 5879
5886 5885 5883 5882 5881 5881 5880 5879 5878 5878 5877 5877 5877 5877 5876 5876 5875 5874 5874 5875 5875 5875 5875 5875 5876 5876 5876 5876 5877 5878 5878 5879 5879 5879 5879 5879 5879 5879 5879 5879 5878 5878 5878
5888 5887 5885 5884 5884 5883 5882 5881 5880 5879 5879 5879 5879 5878 5878 5877 5876 5876 5876 5876 5876 5876 5876 5876 5876 5877 5877 5878 5878 5878 5879 5879 5879 5879 5879 5879 5879 5879 5878 5878 5878 5877 5877
5890 5889 5888 5887 5886 5885 5884 5883 5882 5882 5881 5881 5880 5880 5879 5879 5878 5878 5878 5878 5878 5877 5877 5877 5877 5877 5878 5878 5878 5879 5879 5879 5879 5879 5879 5878 5878 5878 5877 5877 5877 5876 5876
5891 5890 5890 5889 5888 5887 5886 5885 5884 5884 5883 5883 5882 5881 5881 5881 5880 5880 5880 5879 5879 5878 5878 5878 5878 5878 5878 5878 5878 5878 5879 5879 5879 5878 5878 5878 5878 5877 5877 5876 5876 5876 5875
5893 5892 5891 5890 5890 5889 5888 5887 5886 5885 5885 5884 5884 5883 5883 5882 5882 5881 5881 5880 5880 5880 5879 5879 5879 5879 5879 5879 5878 5878 5878 5878 5878 5878 5878 5878 5877 5877 5876 5875 5875 5874 5874
5894 5893 5892 5892 5891 5890 5889 5888 5888 5887 5886 5885 5885 5884 5884 5883 5883 5883 5882 5881 5881 5881 5880 5880 5880 5879 5879 5879 5879 5878 5878 5878 5878 5877 5877 5877 5876 5876 5875 5874 5874 5873 5872
5895 5894 5893 5892 5892 5891 5891 5890 5889 5888 5887 5886 5886 5885 5885 5884 5883 5883 5882 5882 5881 5881 5881 5880 5880 5879 5879 5879 5879 5878 5878 5877 5877 5876 5876 5876 5875 5875 5874 5873 5872 5871 5870
5895 5894 5893 5893 5892 5891 5891 5890 5889 5888 5888 5887 5886 5886 5885 5884 5884 5883 5882 5882 5882 5881 5881 5880 5880 5879 5879 5879 5878 5878 5877 5877 5876 5876 5875 5874 5874 5873 5872 5871 5870 5869 5868
5895 5894 5894 5893 5892 5891 5891 5890 5889 5889 5888 5887 5886 5885 5885 5884 5884 5883 5882 5882 5881 5881 5880 5880 5880 5879 5879 5879 5878 5877 5877 5877 5875 5874 5874 5873 5872 5871 5871 5870 5868 5867 5866
5895 5894 5894 5893 5892 5891 5891 5890 5889 5888 5887 5887 5886 5885 5885 5884 5883 5883 5882 5882 5881 5880 5880 5879 5879 5878 5878 5878 5877 5877 5876 5875 5874 5873 5872 5871 5870 5869 5868 5867 5866 5865 5863
5895 5894 5893 5893 5892 5891 5890 5889 5889 5888 5887 5886 5885 5885 5884 5883 5882 5882 5881 5881 5880 5880 5879 5878 5877 5877 5876 5876 5875 5874 5874 5873 5872 5872 5871 5870 5868 5867 5866 5865 5863 5862 5860
5894 5893 5892 5892 5891 5890 5889 5889 5888 5887 5886 5885 5884 5884 5883 5882 5881 5881 5880 5880 5879 5878 5877 5877 5876 5875 5874 5874 5873 5872 5871 5871 5870 5869 5868 5868 5866 5865 5863 5862 5860 5859 5857
5893 5892 5891 5890 5890 5889 5888 5887 5886 5885 5885 5884 5883 5882 5881 5880 5880 5879 5878 5878 5877 5876 5875 5874 5874 5873 5872 5871 5871 5870 5869 5868 5867 5867 5866 5865 5864 5862 5860 5859 5857 5855 5854